TimeAKDT,TemperatureF,Dew PointF,Humidity,Sea Level PressureIn,VisibilityMPH,Wind Direction,Wind SpeedMPH,Gust SpeedMPH,PrecipitationIn,Events,Conditions,WindDirDegrees,DateUTC
12:53 AM,30.9,27.0,85,30.10,10.0,SW,17.3,-,N/A,,Overcast,220,2013-05-10 08:53:00
1:53 AM,30.9,28.0,89,30.10,10.0,SW,17.3,-,N/A,,Overcast,230,2013-05-10 09:53:00
2:53 AM,30.9,28.0,89,30.09,10.0,SW,15.0,-,N/A,,Overcast,230,2013-05-10 10:53:00
3:53 AM,30.9,28.0,89,30.09,10.0,SW,15.0,-,N/A,,Overcast,230,2013-05-10 11:53:00
4:53 AM,30.9,28.0,89,30.08,10.0,SW,13.8,-,N/A,,Overcast,230,2013-05-10 12:53:00
5:53 AM,30.9,27.0,85,30.07,10.0,SW,15.0,-,N/A,,Overcast,230,2013-05-10 13:53:00
6:53 AM,30.9,27.0,85,30.06,10.0,SW,11.5,-,N/A,,Overcast,230,2013-05-10 14:53:00
7:53 AM,30.9,28.0,89,30.06,10.0,SW,12.7,-,N/A,,Overcast,230,2013-05-10 15:53:00
8:53 AM,30.9,28.0,89,30.06,10.0,SSW,9.2,-,N/A,,Overcast,210,2013-05-10 16:53:00
9:53 AM,30.9,28.0,89,30.06,10.0,SW,9.2,-,N/A,,Overcast,220,2013-05-10 17:53:00
10:53 AM,30.9,28.0,89,30.05,10.0,SW,10.4,-,N/A,,Overcast,220,2013-05-10 18:53:00
11:39 AM,32.0,28.4,87,30.04,10.0,SSW,13.8,-,N/A,,Overcast,210,2013-05-10 19:39:00
11:53 AM,32.0,28.0,85,30.04,10.0,SSW,11.5,-,N/A,,Overcast,210,2013-05-10 19:53:00
12:27 PM,32.0,28.4,87,30.03,10.0,SSW,13.8,-,N/A,,Overcast,210,2013-05-10 20:27:00
12:38 PM,32.0,28.4,87,30.03,10.0,SW,13.8,-,N/A,,Overcast,220,2013-05-10 20:38:00
12:49 PM,33.8,28.4,81,30.03,10.0,SSW,13.8,-,N/A,,Overcast,210,2013-05-10 20:49:00
12:53 PM,33.1,28.9,85,30.04,10.0,SSW,12.7,-,N/A,,Overcast,210,2013-05-10 20:53:00
1:42 PM,33.8,28.4,81,30.03,10.0,SSW,13.8,-,N/A,,Overcast,210,2013-05-10 21:42:00
1:53 PM,33.1,28.0,82,30.03,10.0,SW,12.7,-,N/A,,Overcast,220,2013-05-10 21:53:00
2:53 PM,33.1,28.9,85,30.02,10.0,SSW,13.8,-,N/A,,Overcast,210,2013-05-10 22:53:00
3:03 PM,33.8,28.4,81,30.02,10.0,SW,12.7,-,N/A,,Overcast,220,2013-05-10 23:03:00
3:13 PM,33.8,28.4,81,30.01,10.0,SW,13.8,-,N/A,,Overcast,220,2013-05-10 23:13:00
3:53 PM,33.1,28.0,82,30.01,10.0,SW,17.3,-,N/A,,Overcast,220,2013-05-10 23:53:00
4:45 PM,33.8,28.4,81,30.00,10.0,SW,17.3,-,N/A,,Overcast,220,2013-05-11 00:45:00
4:53 PM,33.1,28.0,82,30.00,10.0,SW,18.4,-,N/A,,Overcast,220,2013-05-11 00:53:00
5:53 PM,33.1,28.0,82,29.99,10.0,SSW,16.1,-,N/A,,Overcast,210,2013-05-11 01:53:00
6:53 PM,33.1,28.9,85,29.98,10.0,SSW,16.1,-,N/A,,Overcast,210,2013-05-11 02:53:00
7:22 PM,33.8,28.4,81,29.97,10.0,SSW,16.1,-,N/A,,Overcast,210,2013-05-11 03:22:00
7:53 PM,32.0,28.0,85,29.97,9.0,SSW,15.0,-,N/A,,Overcast,200,2013-05-11 03:53:00
8:12 PM,32.0,28.4,87,29.96,10.0,SSW,16.1,-,N/A,,Overcast,210,2013-05-11 04:12:00
8:35 PM,32.0,28.4,87,29.96,2.5,SW,16.1,-,0.00,Snow,Light Snow,220,2013-05-11 04:35:00
8:44 PM,32.0,28.4,87,29.96,3.0,SW,16.1,-,0.00,Snow,Light Snow,220,2013-05-11 04:44:00
8:53 PM,32.0,28.9,88,29.96,4.0,SSW,13.8,-,0.00,Snow,Light Snow,210,2013-05-11 04:53:00
9:30 PM,32.0,28.4,87,29.95,2.5,SW,15.0,-,0.00,Snow,Light Snow,220,2013-05-11 05:30:00
9:37 PM,32.0,28.4,87,29.95,8.0,SW,16.1,-,0.00,,Overcast,220,2013-05-11 05:37:00
9:53 PM,32.0,28.9,88,29.95,10.0,SSW,15.0,-,0.00,,Overcast,210,2013-05-11 05:53:00
10:07 PM,32.0,28.4,87,29.94,10.0,SSW,15.0,-,N/A,,Overcast,210,2013-05-11 06:07:00
10:21 PM,32.0,28.4,87,29.94,1.8,SSW,16.1,-,N/A,,Overcast,210,2013-05-11 06:21:00
10:32 PM,32.0,30.2,93,29.94,3.0,SSW,15.0,-,N/A,,Overcast,210,2013-05-11 06:32:00
10:53 PM,32.0,28.9,88,29.94,9.0,SSW,15.0,-,N/A,,Overcast,210,2013-05-11 06:53:00
11:53 PM,32.0,28.9,88,29.94,5.0,SSW,12.7,-,N/A,,Overcast,210,2013-05-11 07:53:00